Change the Weather History Date:

Sunday, October 21, 2012

  Actual Average Record
Temperature  
Mean Temperature 80 °F -  
Max Temperature 92 °F 85 °F 98 °F (2007)
Min Temperature 69 °F 62 °F 60 °F (1996)
Cooling Degree Days 16    
Growing Degree Days 30 (Base 50)    
Moisture  
Dew Point 67 °F    
Average Humidity 64    
Maximum Humidity 94    
Minimum Humidity 40    
Precipitation  
Precipitation 0.00 in - - ()
Sea Level Pressure  
Sea Level Pressure 29.87 in    
Wind  
Wind Speed 3 mph ()    
Max Wind Speed 12 mph    
Max Gust Speed -    
Visibility 10.9 miles    
Events      
Averages and records for this station are not official NWS values.
T = Trace of Precipitation, MM = Missing Value Source: Averaged Metar Reports

Daily Weather History Graph

Daily Weather History Graph

Search for Another Location

Airport or City:

Trip Planner

Search our weather history database for the weather conditions in past years. The results will help you decide how hot, cold, wet, or windy it might be!

Date:

Astronomy

Oct. 21, 2012 Rise Set
Actual Time 7:22 AM MDT 6:49 PM MDT
Civil Twilight 6:59 AM MDT 7:12 PM MDT
Nautical Twilight 6:32 AM MDT 7:39 PM MDT
Astronomical Twilight 6:06 AM MDT 8:05 PM MDT
Moon 1:33 PM MDT (10/21) No Moon Set
Length of Visible Light 12h 13m
Length of Day
11h 27m
Waxing Crescent, 46% of the Moon is Illuminated
Oct 21
Waxing Crescent
Oct 21
First Quarter
Oct 29
Full
Nov 6
Last Quarter
Nov 13
New

Hourly Weather History & Observations

Time (MDT) Temp. Heat Index Dew Point Humidity Pressure Visibility Wind Dir Wind Speed Gust Speed Precip Events Conditions
2:44 AM 75 °F - 70 °F 79% 29.82 in 2 mi Calm Calm - -  
5:40 AM 66.2 °F - 62.6 °F 88% 29.91 in 10.0 mi South 6.9 mph - N/A   Clear
5:50 AM 74 °F - 66 °F 70% 29.88 in 2 mi Calm Calm - -  
6:43 AM 64.4 °F - 62.6 °F 94% 29.86 in 10.0 mi South 5.8 mph - N/A   Clear
7:49 AM 66.2 °F - 62.6 °F 88% 29.88 in 10.0 mi SSW 3.5 mph - N/A   Clear
8:40 AM 72 °F - 67 °F 81% 29.94 in 16 mi Calm Calm - -  
8:44 AM 69.8 °F - 62.6 °F 78% 29.96 in 10.0 mi SSW 3.5 mph - N/A   Clear
9:41 AM 77.0 °F - 64.4 °F 65% 29.91 in 12.0 mi South 3.5 mph - N/A   Clear
10:46 AM 84.2 °F 85.0 °F 62.6 °F 48% 29.91 in 12.0 mi Calm Calm - N/A   Clear
11:47 AM 87.8 °F 87.6 °F 60.8 °F 40% 29.94 in 15.0 mi Calm Calm - N/A   Clear
11:50 AM 90 °F - 71 °F 45% 29.89 in 19 mi Calm Calm - -  
12:43 PM 87.8 °F 88.5 °F 62.6 °F 43% 29.87 in 15.0 mi North 6.9 mph - N/A   Clear
1:49 PM 87.8 °F 88.5 °F 62.6 °F 43% 29.84 in 15.0 mi NNW 11.5 mph - N/A   Clear
2:40 PM 92 °F - 74 °F 47% 29.83 in 19 mi NW 6.7 mph - -  
2:44 PM 87.8 °F 88.5 °F 62.6 °F 43% 29.88 in 15.0 mi NNW 10.4 mph - N/A   Clear
3:41 PM 87.8 °F 88.5 °F 62.6 °F 43% 29.81 in 15.0 mi NNW 4.6 mph - N/A   Clear
4:50 PM 87.8 °F 88.5 °F 62.6 °F 43% 29.81 in 10.0 mi NNW 5.8 mph - N/A   Clear
5:44 PM 86.0 °F 89.4 °F 68.0 °F 55% 29.93 in 10.0 mi NNW 6.9 mph - N/A   Clear
5:50 PM 89 °F - 73 °F 51% 29.82 in 12 mi NW 8.9 mph - -  
6:42 PM 82.4 °F 86.3 °F 69.8 °F 66% 29.82 in 10.0 mi NW 5.8 mph - N/A   Partly Cloudy
7:47 PM 80.6 °F 84.6 °F 71.6 °F 74% 29.82 in 10.0 mi Calm Calm - N/A   Partly Cloudy
8:43 PM 78.8 °F - 71.6 °F 78% 29.95 in 10.0 mi Calm Calm - N/A   Clear
8:50 PM 83 °F - 76 °F 75% 29.83 in 2 mi Calm Calm - -  
9:51 PM 75.2 °F - 69.8 °F 83% 29.85 in 10.0 mi Calm Calm - N/A   Clear
10:44 PM 73.4 °F - 68.0 °F 83% 29.86 in 10.0 mi Calm Calm - N/A   Clear
11:50 PM 78 °F - 71 °F 74% 29.85 in 2 mi Calm Calm - -